スペースウォッチ彗星

366P/Spacewatch (2018)

English version
Home page
Updated on August 28, 2018

---------------------------------------------------------------------

・ プロフィール

符号 366P/2018 F2
検出日 2018年3月17日
検出光度 20.2等
検出者 Erwin Schwab (Egelsbach, Germany)

・ 写真集

・ 軌道要素

Epoch 2018 July 21.0 TT = JDT 2458320.5
T 2018 July 21.83910 TT                                 MPCW
q   2.2777654            (2000.0)            P               Q
n   0.15056152     Peri.  153.33448     -0.71316609     +0.68574865
a   3.4993984      Node    70.75771     -0.66750967     -0.60098534
e   0.3490980      Incl.    8.85939     -0.21406768     -0.41056718
P   6.55
From 44 observations 2005 Apr. 4-2018 Mar. 26, mean residual 0".4.

・ 光度変化

        m1 = 15.2 + 5 logΔ + 10.0 log r

---------------------------------------------------------------------

軌道要素はM.P.E.C. 2018-F152に掲載されたものです。
光度グラフはComet for Windowsで作成したものです。

---------------------------------------------------------------------

Copyright(C) Seiichi Yoshida (comet@aerith.net). All rights reserved.